OMA323 OOMS-OPKC

Flight info

Callsign OMA323
Flight time 1h 16m
Altitude 33000
Route MCT G216 LAKIV
Aircraft B738/M-SDE2E3FGHIRWXY/LB1

Departure

Time 2026-05-08 02:01
Airport Muscat International Airport (OOMS)

Arrival

Time 2026-05-08 03:18
Airport Jinnah International Airport (OPKC)
Time Latitude Longitude Altitude Speed Heading
2026-05-08 01:36 23.59721 58.28803 43 ft 0 kts 265°
2026-05-08 01:48 23.59723 58.28829 41 ft 4 kts 265°
2026-05-08 01:48 23.59725 58.28859 39 ft 4 kts 265°
2026-05-08 01:48 23.59726 58.28885 39 ft 3 kts 265°
2026-05-08 01:48 23.59733 58.28910 40 ft 4 kts 218°
2026-05-08 01:49 23.59755 58.28917 43 ft 4 kts 175°
2026-05-08 01:49 23.59765 58.28916 42 ft 0 kts 175°
2026-05-08 01:53 23.59745 58.28918 44 ft 9 kts 175°
2026-05-08 01:53 23.59734 58.28919 44 ft 2 kts 174°
2026-05-08 01:54 23.59709 58.28922 44 ft 6 kts 175°
2026-05-08 01:54 23.59703 58.28922 44 ft 1 kts 175°
2026-05-08 01:54 23.59698 58.28923 44 ft 1 kts 175°
2026-05-08 01:54 23.59685 58.28925 43 ft 6 kts 169°
2026-05-08 01:55 23.59652 58.28964 43 ft 8 kts 101°
2026-05-08 01:55 23.59653 58.29026 44 ft 9 kts 85°
2026-05-08 01:55 23.59659 58.29113 44 ft 14 kts 85°
2026-05-08 01:55 23.59668 58.29226 44 ft 16 kts 88°
2026-05-08 01:56 23.59677 58.29334 44 ft 11 kts 88°
2026-05-08 01:56 23.59682 58.29402 42 ft 7 kts 84°
2026-05-08 01:56 23.59686 58.29452 44 ft 6 kts 85°
2026-05-08 01:56 23.59690 58.29501 44 ft 6 kts 85°
2026-05-08 01:57 23.59694 58.29552 44 ft 8 kts 85°
2026-05-08 01:57 23.59700 58.29627 44 ft 14 kts 85°
2026-05-08 01:57 23.59709 58.29749 44 ft 17 kts 85°
2026-05-08 01:57 23.59720 58.29872 44 ft 16 kts 84°
2026-05-08 01:58 23.59725 58.29937 44 ft 3 kts 90°
2026-05-08 01:58 23.59717 58.29960 44 ft 3 kts 116°
2026-05-08 01:58 23.59697 58.29969 43 ft 4 kts 184°
2026-05-08 01:58 23.59691 58.29969 44 ft 0 kts 178°
2026-05-08 01:59 23.59689 58.29969 44 ft 1 kts 177°
2026-05-08 01:59 23.59685 58.29970 44 ft 1 kts 171°
2026-05-08 01:59 23.59656 58.29992 44 ft 11 kts 126°
2026-05-08 01:59 23.59649 58.30101 44 ft 16 kts 89°
2026-05-08 02:00 23.59592 58.30191 41 ft 15 kts 154°
2026-05-08 02:00 23.59491 58.30180 43 ft 15 kts 198°
2026-05-08 02:00 23.59442 58.30072 43 ft 25 kts 265°
2026-05-08 02:00 23.59417 58.29736 45 ft 65 kts 266°
2026-05-08 02:01 23.59353 58.28972 42 ft 137 kts 266°
2026-05-08 02:01 23.59260 58.27716 214 ft 187 kts 264°
2026-05-08 02:01 23.59125 58.26268 948 ft 195 kts 265°
2026-05-08 02:01 23.58985 58.24869 2089 ft 180 kts 265°
2026-05-08 02:02 23.58837 58.23445 2553 ft 201 kts 269°
2026-05-08 02:02 23.59202 58.21912 2808 ft 221 kts 303°
2026-05-08 02:02 23.60360 58.20741 3128 ft 243 kts 327°
2026-05-08 02:02 23.62061 58.20253 3588 ft 266 kts 357°
2026-05-08 02:03 23.63899 58.20581 4523 ft 268 kts 12°
2026-05-08 02:03 23.65553 58.21562 5386 ft 278 kts 39°
2026-05-08 02:03 23.66705 58.23272 6303 ft 284 kts 61°
2026-05-08 02:03 23.67249 58.25358 7144 ft 289 kts 79°
2026-05-08 02:04 23.67510 58.27541 7991 ft 291 kts 82°
2026-05-08 02:04 23.67721 58.29734 8884 ft 290 kts 84°
2026-05-08 02:04 23.67922 58.31923 9760 ft 291 kts 85°
2026-05-08 02:04 23.68128 58.34132 10460 ft 298 kts 85°
2026-05-08 02:05 23.68349 58.36474 10664 ft 322 kts 84°
2026-05-08 02:05 23.68593 58.38987 10836 ft 345 kts 84°
2026-05-08 02:05 23.68854 58.41628 11084 ft 361 kts 84°
2026-05-08 02:05 23.69129 58.44376 11660 ft 366 kts 84°
2026-05-08 02:06 23.69408 58.47138 12411 ft 366 kts 84°
2026-05-08 02:06 23.69688 58.49898 13191 ft 365 kts 84°
2026-05-08 02:06 23.69967 58.52656 13865 ft 367 kts 84°
2026-05-08 02:06 23.70250 58.55447 14367 ft 373 kts 84°
2026-05-08 02:07 23.70538 58.58286 14836 ft 379 kts 84°
2026-05-08 02:07 23.70828 58.61154 15350 ft 383 kts 84°
2026-05-08 02:07 23.71122 58.64066 15864 ft 387 kts 84°
2026-05-08 02:07 23.71417 58.66998 16349 ft 391 kts 84°
2026-05-08 02:08 23.71716 58.69968 16818 ft 396 kts 84°
2026-05-08 02:08 23.72017 58.72969 17293 ft 400 kts 84°
2026-05-08 02:08 23.72320 58.75998 17755 ft 403 kts 84°
2026-05-08 02:08 23.72625 58.79053 18174 ft 407 kts 84°
2026-05-08 02:09 23.72933 58.82142 18579 ft 410 kts 84°
2026-05-08 02:09 23.73242 58.85240 18992 ft 413 kts 84°
2026-05-08 02:09 23.73552 58.88368 19379 ft 416 kts 84°
2026-05-08 02:09 23.73864 58.91511 19785 ft 418 kts 84°
2026-05-08 02:10 23.74177 58.94681 20131 ft 422 kts 84°
2026-05-08 02:10 23.74493 58.97876 20542 ft 424 kts 84°
2026-05-08 02:10 23.74809 59.01090 20887 ft 428 kts 84°
2026-05-08 02:10 23.75128 59.04330 21244 ft 431 kts 84°
2026-05-08 02:11 23.75447 59.07589 21679 ft 432 kts 84°
2026-05-08 02:11 23.75764 59.10820 21964 ft 436 kts 84°
2026-05-08 02:11 23.76087 59.14135 22307 ft 439 kts 85°
2026-05-08 02:11 23.76411 59.17454 22656 ft 442 kts 84°
2026-05-08 02:12 23.76737 59.20810 22946 ft 445 kts 85°
2026-05-08 02:12 23.77064 59.24185 23282 ft 448 kts 84°
2026-05-08 02:12 23.77392 59.27572 23552 ft 451 kts 85°
2026-05-08 02:12 23.77722 59.30990 23802 ft 453 kts 84°
2026-05-08 02:13 23.78052 59.34422 24027 ft 457 kts 84°
2026-05-08 02:13 23.78385 59.37884 24267 ft 460 kts 84°
2026-05-08 02:13 23.78720 59.41373 24507 ft 462 kts 84°
2026-05-08 02:13 23.79054 59.44869 24792 ft 464 kts 84°
2026-05-08 02:14 23.79391 59.48392 24976 ft 468 kts 84°
2026-05-08 02:14 23.79762 59.51920 25298 ft 468 kts 82°
2026-05-08 02:14 23.80280 59.55446 25462 ft 472 kts 80°
2026-05-08 02:14 23.80868 59.58919 25727 ft 473 kts 79°
2026-05-08 02:15 23.81485 59.62454 25997 ft 475 kts 79°
2026-05-08 02:15 23.82094 59.66012 26238 ft 477 kts 79°
2026-05-08 02:15 23.82686 59.69583 26465 ft 480 kts 79°
2026-05-08 02:15 23.83271 59.73187 26677 ft 482 kts 79°
2026-05-08 02:16 23.83850 59.76792 26964 ft 482 kts 79°
2026-05-08 02:16 23.84432 59.80413 27158 ft 485 kts 79°
2026-05-08 02:16 23.85010 59.84052 27337 ft 488 kts 79°
2026-05-08 02:16 23.85589 59.87722 27454 ft 492 kts 80°
2026-05-08 02:17 23.86168 59.91406 27750 ft 491 kts 80°
2026-05-08 02:17 23.86746 59.95094 27946 ft 493 kts 79°
2026-05-08 02:17 23.87326 59.98800 28108 ft 496 kts 80°
2026-05-08 02:17 23.87908 60.02513 28333 ft 497 kts 80°
2026-05-08 02:18 23.88490 60.06239 28588 ft 497 kts 80°
2026-05-08 02:18 23.89070 60.09953 28891 ft 496 kts 80°
2026-05-08 02:18 23.89650 60.13675 29175 ft 496 kts 80°
2026-05-08 02:18 23.90229 60.17391 29466 ft 496 kts 79°
2026-05-08 02:19 23.90805 60.21097 29739 ft 496 kts 79°
2026-05-08 02:19 23.91383 60.24819 29991 ft 496 kts 79°
2026-05-08 02:19 23.91953 60.28498 30268 ft 495 kts 80°
2026-05-08 02:19 23.92525 60.32195 30575 ft 493 kts 80°
2026-05-08 02:20 23.93095 60.35892 30868 ft 492 kts 80°
2026-05-08 02:20 23.93664 60.39581 31133 ft 492 kts 80°
2026-05-08 02:20 23.94232 60.43272 31418 ft 492 kts 80°
2026-05-08 02:20 23.94798 60.46954 31727 ft 491 kts 80°
2026-05-08 02:21 23.95362 60.50628 32037 ft 490 kts 80°
2026-05-08 02:21 23.95924 60.54299 32322 ft 489 kts 80°
2026-05-08 02:21 23.96485 60.57968 32628 ft 488 kts 80°
2026-05-08 02:21 23.97044 60.61628 32745 ft 491 kts 80°
2026-05-08 02:22 23.98165 60.68992 32739 ft 489 kts 80°
2026-05-08 02:22 23.99269 60.76264 32739 ft 486 kts 80°
2026-05-08 02:23 24.00370 60.83542 32747 ft 484 kts 80°
2026-05-08 02:23 24.01466 60.90813 32747 ft 484 kts 80°
2026-05-08 02:24 24.02559 60.98083 32743 ft 484 kts 80°
2026-05-08 02:24 24.03649 61.05361 32747 ft 485 kts 79°
2026-05-08 02:25 24.04738 61.12652 32741 ft 486 kts 80°
2026-05-08 02:25 24.05820 61.19922 32741 ft 487 kts 80°
2026-05-08 02:26 24.06907 61.27256 32739 ft 488 kts 80°
2026-05-08 02:26 24.07995 61.34610 32740 ft 489 kts 79°
2026-05-08 02:27 24.09085 61.41973 32744 ft 490 kts 79°
2026-05-08 02:27 24.10174 61.49347 32742 ft 491 kts 79°
2026-05-08 02:28 24.11260 61.56725 32743 ft 491 kts 79°
2026-05-08 02:28 24.12335 61.64061 32742 ft 491 kts 79°
2026-05-08 02:29 24.13414 61.71448 32742 ft 491 kts 79°
2026-05-08 02:29 24.14489 61.78831 32743 ft 491 kts 80°
2026-05-08 02:30 24.15527 61.86227 32744 ft 490 kts 80°
2026-05-08 02:30 24.16522 61.93620 32749 ft 490 kts 80°
2026-05-08 02:31 24.17513 62.01010 32745 ft 490 kts 80°
2026-05-08 02:31 24.18498 62.08340 32748 ft 490 kts 80°
2026-05-08 02:32 24.19490 62.15718 32744 ft 489 kts 80°
2026-05-08 02:32 24.20478 62.23092 32748 ft 489 kts 80°
2026-05-08 02:33 24.21462 62.30471 32749 ft 489 kts 80°
2026-05-08 02:33 24.22446 62.37872 32751 ft 490 kts 80°
2026-05-08 02:34 24.23424 62.45265 32751 ft 490 kts 80°
2026-05-08 02:34 24.24398 62.52649 32757 ft 490 kts 80°
2026-05-08 02:35 24.25364 62.60005 32751 ft 490 kts 80°
2026-05-08 02:35 24.26333 62.67406 32754 ft 491 kts 80°
2026-05-08 02:36 24.27298 62.74807 32757 ft 491 kts 80°
2026-05-08 02:36 24.28262 62.82227 32755 ft 491 kts 80°
2026-05-08 02:37 24.29221 62.89646 32758 ft 492 kts 80°
2026-05-08 02:37 24.30178 62.97068 32759 ft 492 kts 80°
2026-05-08 02:38 24.31132 63.04504 32757 ft 492 kts 80°
2026-05-08 02:38 24.32082 63.11935 32756 ft 492 kts 80°
2026-05-08 02:39 24.33030 63.19378 32762 ft 492 kts 80°
2026-05-08 02:39 24.33966 63.26763 32763 ft 492 kts 80°
2026-05-08 02:40 24.34907 63.34205 32769 ft 494 kts 80°
2026-05-08 02:40 24.35855 63.41732 32769 ft 501 kts 80°
2026-05-08 02:41 24.36808 63.49335 32769 ft 505 kts 80°
2026-05-08 02:41 24.37763 63.56988 32762 ft 507 kts 80°
2026-05-08 02:42 24.38553 63.63350 32764 ft 507 kts 80°
2026-05-08 02:42 24.39656 63.72264 32766 ft 507 kts 80°
2026-05-08 02:43 24.40599 63.79924 32766 ft 507 kts 80°
2026-05-08 02:43 24.41381 63.86295 32771 ft 506 kts 80°
2026-05-08 02:44 24.42318 63.93950 32770 ft 506 kts 80°
2026-05-08 02:44 24.43249 64.01605 32769 ft 506 kts 80°
2026-05-08 02:45 24.44177 64.09258 32769 ft 506 kts 79°
2026-05-08 02:45 24.45102 64.16918 32774 ft 506 kts 79°
2026-05-08 02:46 24.46023 64.24579 32773 ft 506 kts 79°
2026-05-08 02:46 24.46939 64.32241 32772 ft 506 kts 79°
2026-05-08 02:47 24.47852 64.39901 32776 ft 506 kts 79°
2026-05-08 02:47 24.48761 64.47568 32776 ft 506 kts 79°
2026-05-08 02:48 24.49661 64.55184 32772 ft 506 kts 79°
2026-05-08 02:48 24.50563 64.62860 32773 ft 506 kts 79°
2026-05-08 02:49 24.51460 64.70525 32775 ft 506 kts 79°
2026-05-08 02:49 24.52355 64.78200 32775 ft 506 kts 80°
2026-05-08 02:50 24.53212 64.85857 32762 ft 499 kts 81°
2026-05-08 02:50 24.53812 64.93394 32767 ft 494 kts 83°
2026-05-08 02:51 24.54345 65.00914 32781 ft 493 kts 82°
2026-05-08 02:51 24.54898 65.08377 32777 ft 494 kts 82°
2026-05-08 02:52 24.55480 65.15946 32774 ft 494 kts 82°
2026-05-08 02:52 24.56057 65.23421 32773 ft 495 kts 82°
2026-05-08 02:53 24.56633 65.30949 32780 ft 495 kts 82°
2026-05-08 02:53 24.57207 65.38510 32781 ft 496 kts 82°
2026-05-08 02:54 24.57776 65.46062 32780 ft 497 kts 82°
2026-05-08 02:54 24.58343 65.53638 32777 ft 497 kts 82°
2026-05-08 02:55 24.59185 65.65002 32786 ft 498 kts 82°
2026-05-08 02:56 24.59744 65.72580 32068 ft 505 kts 82°
2026-05-08 02:56 24.60025 65.76416 31372 ft 502 kts 82°
2026-05-08 02:56 24.60305 65.80253 30596 ft 503 kts 82°
2026-05-08 02:56 24.60583 65.84089 29728 ft 505 kts 83°
2026-05-08 02:57 24.60862 65.87944 28730 ft 506 kts 83°
2026-05-08 02:57 24.61140 65.91804 27763 ft 506 kts 83°
2026-05-08 02:57 24.61416 65.95649 26932 ft 503 kts 83°
2026-05-08 02:57 24.61688 65.99458 26282 ft 496 kts 83°
2026-05-08 02:58 24.61955 66.03214 25613 ft 490 kts 83°
2026-05-08 02:58 24.62218 66.06925 24949 ft 485 kts 83°
2026-05-08 02:58 24.62478 66.10601 24276 ft 480 kts 84°
2026-05-08 02:58 24.62735 66.14234 23620 ft 475 kts 84°
2026-05-08 02:59 24.62989 66.17836 22883 ft 470 kts 84°
2026-05-08 02:59 24.63239 66.21400 22180 ft 464 kts 84°
2026-05-08 02:59 24.63484 66.24906 21517 ft 457 kts 84°
2026-05-08 02:59 24.63722 66.28320 20888 ft 450 kts 84°
2026-05-08 03:00 24.63958 66.31721 20266 ft 444 kts 84°
2026-05-08 03:00 24.64190 66.35083 19646 ft 437 kts 83°
2026-05-08 03:00 24.64419 66.38393 19040 ft 432 kts 83°
2026-05-08 03:00 24.64644 66.41668 18437 ft 426 kts 83°
2026-05-08 03:01 24.64866 66.44897 17773 ft 422 kts 83°
2026-05-08 03:01 24.65085 66.48096 17099 ft 415 kts 83°
2026-05-08 03:01 24.65297 66.51212 16483 ft 402 kts 83°
2026-05-08 03:01 24.65500 66.54226 15908 ft 390 kts 83°
2026-05-08 03:02 24.65698 66.57156 15371 ft 379 kts 82°
2026-05-08 03:02 24.65889 66.59991 15111 ft 366 kts 83°
2026-05-08 03:02 24.66081 66.62815 14589 ft 377 kts 82°
2026-05-08 03:02 24.66283 66.65745 14063 ft 387 kts 82°
2026-05-08 03:03 24.66480 66.68661 13551 ft 378 kts 82°
2026-05-08 03:03 24.66666 66.71485 13095 ft 364 kts 84°
2026-05-08 03:03 24.66844 66.74181 12642 ft 353 kts 84°
2026-05-08 03:03 24.67021 66.76837 12192 ft 343 kts 83°
2026-05-08 03:04 24.67192 66.79403 11752 ft 334 kts 84°
2026-05-08 03:04 24.67360 66.81929 11318 ft 327 kts 84°
2026-05-08 03:04 24.67524 66.84401 10890 ft 320 kts 84°
2026-05-08 03:04 24.67685 66.86823 10470 ft 315 kts 84°
2026-05-08 03:05 24.67843 66.89221 10107 ft 313 kts 84°
2026-05-08 03:05 24.68000 66.91594 9791 ft 308 kts 84°
2026-05-08 03:05 24.68152 66.93914 9440 ft 300 kts 84°
2026-05-08 03:05 24.68299 66.96170 9095 ft 293 kts 84°
2026-05-08 03:06 24.68445 66.98400 8758 ft 292 kts 84°
2026-05-08 03:06 24.68591 67.00633 8424 ft 292 kts 84°
2026-05-08 03:06 24.68735 67.02853 8093 ft 291 kts 84°
2026-05-08 03:06 24.69024 67.05014 7741 ft 288 kts 68°
2026-05-08 03:07 24.69955 67.06947 7441 ft 284 kts 57°
2026-05-08 03:07 24.70974 67.08807 7113 ft 284 kts 57°
2026-05-08 03:07 24.71996 67.10662 6794 ft 283 kts 57°
2026-05-08 03:07 24.73015 67.12517 6478 ft 283 kts 57°
2026-05-08 03:08 24.74029 67.14373 6159 ft 283 kts 57°
2026-05-08 03:08 24.75037 67.16225 5926 ft 279 kts 58°
2026-05-08 03:08 24.76016 67.18031 5742 ft 269 kts 57°
2026-05-08 03:08 24.76957 67.19769 5556 ft 259 kts 58°
2026-05-08 03:09 24.77864 67.21448 5376 ft 252 kts 58°
2026-05-08 03:09 24.78757 67.23103 5210 ft 251 kts 58°
2026-05-08 03:09 24.79635 67.24729 5033 ft 243 kts 57°
2026-05-08 03:09 24.80482 67.26301 4851 ft 236 kts 57°
2026-05-08 03:10 24.81308 67.27830 4684 ft 230 kts 57°
2026-05-08 03:10 24.82110 67.29319 4527 ft 228 kts 58°
2026-05-08 03:10 24.82920 67.30821 4356 ft 229 kts 57°
2026-05-08 03:10 24.83735 67.32333 4199 ft 228 kts 57°
2026-05-08 03:11 24.84543 67.33833 4056 ft 227 kts 57°
2026-05-08 03:11 24.85353 67.35337 3930 ft 230 kts 57°
2026-05-08 03:11 24.86174 67.36862 3773 ft 232 kts 58°
2026-05-08 03:11 24.87001 67.38393 3632 ft 232 kts 57°
2026-05-08 03:12 24.88075 67.39678 3440 ft 226 kts 30°
2026-05-08 03:12 24.89529 67.40104 3283 ft 215 kts 352°
2026-05-08 03:12 24.90915 67.39610 3203 ft 205 kts 337°
2026-05-08 03:12 24.92233 67.39078 3090 ft 197 kts 341°
2026-05-08 03:13 24.93534 67.38629 3040 ft 195 kts 343°
2026-05-08 03:13 24.94662 67.37905 2986 ft 188 kts 308°
2026-05-08 03:13 24.95272 67.36668 2986 ft 185 kts 286°
2026-05-08 03:13 24.95368 67.35262 3007 ft 187 kts 264°
2026-05-08 03:14 24.95094 67.33855 3007 ft 189 kts 259°
2026-05-08 03:14 24.94774 67.32453 3009 ft 189 kts 258°
2026-05-08 03:14 24.94459 67.31040 2828 ft 190 kts 262°
2026-05-08 03:14 24.94205 67.29630 2580 ft 186 kts 258°
2026-05-08 03:15 24.93883 67.28235 2174 ft 186 kts 256°
2026-05-08 03:15 24.93545 67.26890 1791 ft 183 kts 256°
2026-05-08 03:15 24.93213 67.25579 1530 ft 172 kts 255°
2026-05-08 03:15 24.92886 67.24307 1132 ft 173 kts 251°
2026-05-08 03:16 24.92520 67.23070 930 ft 161 kts 247°
2026-05-08 03:16 24.92207 67.21990 1023 ft 141 kts 250°
2026-05-08 03:16 24.92028 67.20879 815 ft 150 kts 260°
2026-05-08 03:16 24.91889 67.19746 718 ft 148 kts 251°
2026-05-08 03:17 24.91437 67.18738 560 ft 146 kts 236°
2026-05-08 03:17 24.90950 67.17778 200 ft 145 kts 253°
2026-05-08 03:17 24.90690 67.16756 107 ft 129 kts 253°
2026-05-08 03:17 24.90487 67.15955 104 ft 86 kts 255°
2026-05-08 03:18 24.90370 67.15482 104 ft 39 kts 254°
2026-05-08 03:18 24.90293 67.15190 101 ft 38 kts 252°
2026-05-08 03:18 24.90221 67.15010 103 ft 14 kts 232°
2026-05-08 03:18 24.90159 67.14935 101 ft 13 kts 226°
2026-05-08 03:19 24.90087 67.14870 102 ft 11 kts 192°
2026-05-08 03:19 24.90033 67.14914 99 ft 11 kts 101°
2026-05-08 03:19 24.90054 67.14991 101 ft 11 kts 81°
2026-05-08 03:19 24.90070 67.15068 100 ft 10 kts 82°
2026-05-08 03:20 24.90083 67.15143 100 ft 10 kts 77°
2026-05-08 03:20 24.90101 67.15215 100 ft 10 kts 73°
2026-05-08 03:20 24.90119 67.15287 100 ft 10 kts 72°
2026-05-08 03:20 24.90138 67.15356 100 ft 9 kts 75°
2026-05-08 03:21 24.90154 67.15429 99 ft 11 kts 73°
2026-05-08 03:21 24.90179 67.15524 100 ft 15 kts 75°
2026-05-08 03:21 24.90210 67.15649 101 ft 19 kts 75°
2026-05-08 03:21 24.90244 67.15789 101 ft 19 kts 73°
2026-05-08 03:22 24.90281 67.15924 101 ft 18 kts 73°
2026-05-08 03:22 24.90316 67.16055 100 ft 18 kts 73°
2026-05-08 03:22 24.90348 67.16182 101 ft 17 kts 78°
2026-05-08 03:22 24.90378 67.16304 101 ft 16 kts 74°
2026-05-08 03:23 24.90406 67.16422 101 ft 16 kts 76°
2026-05-08 03:23 24.90436 67.16535 101 ft 15 kts 74°
2026-05-08 03:23 24.90458 67.16645 101 ft 14 kts 91°
2026-05-08 03:23 24.90389 67.16709 100 ft 14 kts 163°
2026-05-08 03:24 24.90299 67.16736 100 ft 13 kts 165°
2026-05-08 03:24 24.90264 67.16747 100 ft 0 kts 164°
2026-05-08 03:24 24.90255 67.16750 100 ft 4 kts 164°
2026-05-08 03:25 24.90226 67.16761 100 ft 4 kts 144°
2026-05-08 03:25 24.90230 67.16790 100 ft 4 kts 69°
2026-05-08 03:25 24.90235 67.16821 100 ft 4 kts 88°
2026-05-08 03:25 24.90235 67.16844 100 ft 0 kts 88°
2026-05-08 03:26 24.90235 67.16845 100 ft 0 kts 88°